Regional Weather Roundup
Issued by NWS

Home | Current Version | Previous Version | Text Only | Print | Product List | Glossary On
Versions: 1 2 3 4 5 6 7 8 9 10 11 12 13 14 15 16 17 18 19 20 21 22 23 24 25 26 27 28 29 30 31 32 33 34 35 36 37 38 39 40 41 42 43 44 45 46 47 48 49 50
000
ASUS46 KSEW 281810
RWRWA

WASHINGTON REGIONAL WEATHER ROUNDUP
NATIONAL WEATHER SERVICE SEATTLE WA
1000 AM PST SAT FEB 28 2015

NOTE:"FAIR" INDICATES FEW OR NO CLOUDS BELOW 12,000 FEET WITH NO
SIGNIFICANT WEATHER AND/OR OBSTRUCTIONS TO VISIBILITY.

WAZ505-507>509-281900-
SEATTLE, TACOMA, EVERETT, AND VICINITY

CITY           SKY/WX    TMP DP  RH WIND       PRES   REMARKS
EVERETT        SUNNY     46  27  47 N10       30.18R
6HR MIN TEMP:  40; 6HR MAX TEMP:  46;

BOEING FIELD   SUNNY     50  31  48 VRB3      30.19R
6HR MIN TEMP:  40; 6HR MAX TEMP:  50;

RENTON         SUNNY     47  32  56 N7        30.19R
6HR MIN TEMP:  39; 6HR MAX TEMP:  47;

SEATAC AIRPORT SUNNY     48  31  51 N14       30.18R
6HR MIN TEMP:  38; 6HR MAX TEMP:  48;

JBLM-MCCHORD   SUNNY     48  33  55 N13G18    30.16R
6HR MIN TEMP:  42; 6HR MAX TEMP:  48;

PUYALLUP       FAIR      48  32  53 VRB7G13   30.15S
BREMERTON      SUNNY     48  23  37 N15G25    30.19R
6HR MIN TEMP:  41; 6HR MAX TEMP:  48;

JBLM-FT LEWIS  SUNNY     48  31  52 N13       30.15R
6HR MIN TEMP:  41; 6HR MAX TEMP:  48;

TACOMA NARROWS SUNNY     48  27  44 N14G23    30.17R
6HR MIN TEMP:  43; 6HR MAX TEMP:  48;

$$

WAZ001-503-506-510-514-515-281900-
NORTH INTERIOR

CITY           SKY/WX    TMP DP  RH WIND       PRES   REMARKS
BELLINGHAM     SUNNY     47  15  27 N20G26    30.22R
6HR MIN TEMP:  40; 6HR MAX TEMP:  47;

FRIDAY HARBOR  SUNNY     48  22  35 NW8       30.24R
6HR MIN TEMP:  44; 6HR MAX TEMP:  49;

EASTSOUND      SUNNY     46  25  42 N6        30.22R
PORT ANGELES   SUNNY     48  30  49 NE7       30.25R
6HR MIN TEMP:  34; 6HR MAX TEMP:  48;

NAS WHIDBEY    SUNNY     50  25  37 NW7       30.22R
6HR MIN TEMP:  38; 6HR MAX TEMP:  51;

ARLINGTON      SUNNY     46  28  49 NW7       30.20R
6HR MIN TEMP:  30; 6HR MAX TEMP:  46;

BURLINGTON     SUNNY     45  30  57 N5        30.22R
$$

WAZ020-022-039-040-504-511-512-281900-
SOUTHWEST INTERIOR

CITY           SKY/WX    TMP DP  RH WIND       PRES   REMARKS
SHELTON        SUNNY     51  21  30 NE8G20    30.13S
6HR MIN TEMP:  33; 6HR MAX TEMP:  51;

OLYMPIA        SUNNY     50  25  37 NE12      30.16R
6HR MIN TEMP:  35; 6HR MAX TEMP:  50;

CHEHALIS       FAIR      48  36  61 N13       30.15S
KELSO          SUNNY     46  36  66 N7        30.18R
6HR MIN TEMP:  37; 6HR MAX TEMP:  46;

VANCOUVER      SUNNY     50  33  52 VRB5      30.12R
6HR MIN TEMP:  37; 6HR MAX TEMP:  50;

SCAPPOOSE, OR  SUNNY     50  36  58 N10       30.12R
6HR MIN TEMP:  41; 6HR MAX TEMP:  50;

PORTLAND, OR   SUNNY     50  35  56 NW3       30.11R
6HR MIN TEMP:  39; 6HR MAX TEMP:  51;

$$

WAZ021-516-517-281900-
WASHINGTON COAST

CITY           SKY/WX    TMP DP  RH WIND       PRES   REMARKS
FORKS          SUNNY     50  21  32 NE12G20   30.19R
6HR MIN TEMP:  42; 6HR MAX TEMP:  50;

HOQUIAM        SUNNY     49  33  54 E15       30.14R
6HR MIN TEMP:  38; 6HR MAX TEMP:  49;

ASTORIA, OR    SUNNY     50  33  52 E13       30.12R
6HR MIN TEMP:  37; 6HR MAX TEMP:  50;

$$

WAZ019-023-024-040-518-519-281900-
CASCADE MOUNTAINS AND COLUMBIA GORGE

CITY           SKY/WX    TMP DP  RH WIND       PRES   REMARKS
TROUTDALE, OR  SUNNY     52  20  28 NE13G25   30.10R
6HR MIN TEMP:  47; 6HR MAX TEMP:  52;

THE DALLES, OR SUNNY     49  24  37 E13       30.15R
6HR MIN TEMP:  34; 6HR MAX TEMP:  49;

$$

WAZ026-027-041>044-520-521-281900-
EAST SLOPES

CITY           SKY/WX    TMP DP  RH WIND       PRES   REMARKS
OMAK           SUNNY     41  14  33 N14G20    30.21S
6HR MIN TEMP:  32; 6HR MAX TEMP:  41;

WENATCHEE      SUNNY     43  22  43 W7        30.18R
6HR MIN TEMP:  38; 6HR MAX TEMP:  44;

ELLENSBURG     SUNNY     48  14  25 VRB6      30.14R
6HR MIN TEMP:  37; 6HR MAX TEMP:  48;

YAKIMA         MOSUNNY   48  17  29 N24       30.16R
6HR MIN TEMP:  40; 6HR MAX TEMP:  49;

$$

WAZ028-034-035-281900-
COLUMBIA BASIN

CITY           SKY/WX    TMP DP  RH WIND       PRES   REMARKS
EPHRATA        SUNNY     45  18  34 NE20G25   30.15R
6HR MIN TEMP:  35; 6HR MAX TEMP:  45;

MOSES LAKE     SUNNY     44  20  38 N21G28    30.15S
6HR MIN TEMP:  30; 6HR MAX TEMP:  44;

PASCO          SUNNY     45  13  27 NE14G24   30.16R
6HR MIN TEMP:  35; 6HR MAX TEMP:  45;

HERMISTON, OR  SUNNY     44  14  29 NE17      30.13R
6HR MIN TEMP:  36; 6HR MAX TEMP:  44;

$$

WAZ036>038-281900-
NORTHEAST WASHINGTON

CITY           SKY/WX    TMP DP  RH WIND       PRES   REMARKS
SPOKANE GEIGER SUNNY     35   5  28 NE16G24   30.10R WCI  25
6HR MIN TEMP:  27; 6HR MAX TEMP:  35;

SPOKANE FELTS  SUNNY     38   6  26 NE9G20    30.13S
6HR MIN TEMP:  30; 6HR MAX TEMP:  38;

FAIRCHILD AFB  SUNNY     34   6  30 NE21G28   30.09S WCI  23
6HR MIN TEMP:  27; 6HR MAX TEMP:  34; 6HR PCP: TRACE;

COEURDALENE,ID SUNNY     34  10  37 N20G26    30.12S WCI  22
6HR MIN TEMP:  27; 6HR MAX TEMP:  34;

DEER PARK      SUNNY     36   4  26 NE16      30.14S
6HR MIN TEMP:  26; 6HR MAX TEMP:  36;

$$

WAZ029>033-281900-
SOUTHEAST WASHINGTON

CITY           SKY/WX    TMP DP  RH WIND       PRES   REMARKS
PULLMAN        SUNNY     37  12  35 E5        30.03S
6HR MIN TEMP:  28; 6HR MAX TEMP:  38;

LEWISTON, ID   SUNNY     42  17  36 NE8       30.06R
6HR MIN TEMP:  30; 6HR MAX TEMP:  42;

WALLA WALLA    SUNNY     39  24  55 S5        30.07R
6HR MIN TEMP:  31; 6HR MAX TEMP:  39;

PENDLETON, OR  SUNNY     37  19  48 N10       30.07R
6HR MIN TEMP:  28; 6HR MAX TEMP:  37;

$$



USA.gov is the U.S. government's official web portal to all federal, state and local government web resources and services.